Milford, UT

3:29 PM MDT on April 23, 2018 (GMT -0600)
Milford Municipal

Weather History for KMLF - February, 2014

Change the Weather History Date:

Thursday, February 20, 2014

  Actual Average Record
Temperature  
Mean Temperature 28 °F -  
Max Temperature 45 °F 43 °F 57 °F (2015)
Min Temperature 12 °F 22 °F 3 °F (2012)
Degree Days  
Heating Degree Days 36    
Moisture  
Dew Point 8 °F    
Average Humidity 42    
Maximum Humidity 74    
Minimum Humidity 9    
Precipitation  
Precipitation 0.00 in - - ()
Sea Level Pressure  
Sea Level Pressure 30.24 in    
Wind  
Wind Speed 6 mph (SSW)    
Max Wind Speed 10 mph    
Max Gust Speed -    
Visibility 10 miles    
Events      
Averages and records for this station are not official NWS values.
T = Trace of Precipitation, MM = Missing Value Source: NWS Daily Summary

Daily Weather History Graph

Daily Weather History Graph

Search for Another Location

Airport or City:

Astronomy

Feb. 20, 2014 Rise Set
Actual Time 7:16 AM MST 6:15 PM MST
Civil Twilight 6:49 AM MST 6:42 PM MST
Nautical Twilight 6:18 AM MST 7:13 PM MST
Astronomical Twilight 5:47 AM MST 7:44 PM MST
Moon No Moon Rise 10:06 AM MST (2/20)
Length of Visible Light 11h 53m
Length of Day
10h 59m
Waning Gibbous, 70% of the Moon is Illuminated
Feb 20
Waning Gibbous
Feb 22
Last Quarter
Mar 1
New
Mar 8
First Quarter
Mar 16
Full

Hourly Weather History & Observations

Time (MST) Temp. Windchill Dew Point Humidity Pressure Visibility Wind Dir Wind Speed Gust Speed Precip Events Conditions
12:52 AM 21.9 °F 11.0 °F 8.1 °F 55% 30.14 in 10.0 mi NNW 10.4 mph - N/A   Clear
1:52 AM 19.9 °F 10.1 °F 8.1 °F 60% 30.16 in 10.0 mi NNW 8.1 mph - N/A   Clear
2:52 AM 19.0 °F 7.5 °F 9.0 °F 65% 30.21 in 10.0 mi North 10.4 mph - N/A   Clear
3:52 AM 17.1 °F 7.6 °F 9.0 °F 71% 30.24 in 10.0 mi North 6.9 mph - N/A   Clear
4:52 AM 16.0 °F - 9.0 °F 74% 30.28 in 10.0 mi Calm Calm - N/A   Clear
5:52 AM 14.0 °F - 7.0 °F 74% 30.30 in 10.0 mi Calm Calm - N/A   Clear
6:52 AM 15.1 °F 7.7 °F 7.0 °F 70% 30.32 in 10.0 mi West 4.6 mph - N/A   Clear
7:52 AM 17.1 °F 11.7 °F 9.0 °F 71% 30.35 in 10.0 mi SW 3.5 mph - N/A   Clear
8:52 AM 23.0 °F 18.4 °F 10.9 °F 60% 30.35 in 10.0 mi South 3.5 mph - N/A   Clear
9:52 AM 30.0 °F 26.5 °F 12.0 °F 47% 30.34 in 10.0 mi South 3.5 mph - N/A   Clear
10:52 AM 36.0 °F 31.1 °F 10.0 °F 34% 30.32 in 10.0 mi Variable 5.8 mph - N/A   Clear
11:52 AM 39.0 °F 36.8 °F 9.0 °F 29% 30.31 in 10.0 mi North 3.5 mph - N/A   Clear
12:52 PM 39.0 °F 36.8 °F 8.1 °F 28% 30.27 in 10.0 mi Variable 3.5 mph - N/A   Clear
1:52 PM 42.1 °F 38.4 °F 6.1 °F 23% 30.24 in 10.0 mi East 5.8 mph - N/A   Clear
2:52 PM 43.0 °F 40.3 °F 6.1 °F 22% 30.22 in 10.0 mi SE 4.6 mph - N/A   Clear
3:52 PM 44.1 °F 40.1 °F 6.1 °F 21% 30.20 in 10.0 mi South 6.9 mph - N/A   Clear
4:52 PM 45.0 °F 42.6 °F 5.0 °F 19% 30.18 in 10.0 mi SSE 4.6 mph - N/A   Clear
5:52 PM 43.0 °F 39.5 °F 7.0 °F 23% 30.18 in 10.0 mi South 5.8 mph - N/A   Clear
6:52 PM 37.9 °F 34.4 °F 7.0 °F 28% 30.19 in 10.0 mi South 4.6 mph - N/A   Clear
7:52 PM 28.9 °F 23.9 °F 6.1 °F 38% 30.22 in 10.0 mi WSW 4.6 mph - N/A   Clear
8:52 PM 28.0 °F 20.0 °F 6.1 °F 39% 30.20 in 10.0 mi West 8.1 mph - N/A   Clear
9:52 PM 28.0 °F - 7.0 °F 41% 30.18 in 10.0 mi Calm Calm - N/A   Clear
10:52 PM 27.0 °F 23.0 °F 7.0 °F 43% 30.16 in 10.0 mi South 3.5 mph - N/A   Clear
11:52 PM 26.1 °F 17.6 °F 7.0 °F 44% 30.14 in 10.0 mi South 8.1 mph - N/A   Clear